Location: Cabeza Gorda
(40.0667°N, 4.9667°W)
Time: 19:37:18
(UTC+00:00)

Cosmos 1758 - Pass Details

Date: 15 January 2026
Orbit: 479 x 500 km, 82.5° (Epoch: 10 February)

Event Time Altitude Azimuth Distance (km) Brightness Sun altitude
Rises 06:34:20 0° 202° (SSW) 2,579 6.7 -12.5°
Reaches altitude 10° 06:36:32 10° 209° (SSW) 1,698 5.7 -12.1°
Maximum altitude 06:40:04 41° 281° (W) 729 3.5 -11.4°
Drops below altitude 10° 06:43:37 10° 353° (N) 1,700 5.6 -10.8°
Sets 06:45:49 0° 1° (N) 2,583 6.6 -10.4°
